[[{"header":{"parameterUnit":"m.s-1","parameterCategory":2,"la1":30.2992,"la2":30.254,"lo1":-89.0895,"lo2":-89.0443,"dy":0.0025,"dx":0.0025,"nx":19,"ny":19,"refTime":"2026-05-01T03:00:00:Z","depth":"0","parameterNumber":2,"parameterNumberName":"U-component_of_CURRENTS"},"data":[0,0,0,0.3021,0.3023,0.3107,0.3107,0.32,0.32,0,0,0,0,0,0,0,0,0,0,0,0.2987,0.2988,0.3021,0.3023,0.3107,0.3107,0.3199,0.32,0,0,0,0,0,0,0,0,0,0,0,0.2987,0.2987,0.2988,0.3024,0.3107,0.3107,0.3199,0.3137,0,0,0,0,0,0,0,0,0,0,0.3057,0.3022,0.2987,0.2988,0.3024,0.3107,0.3107,0.3134,0.3141,0.3161,0,0.318,0,0.32,0.3207,0.3208,0,0,0,0.3013,0.3017,0.3052,0.2989,0.3025,0.3107,0.3066,0.3138,0.3146,0.317,0.3182,0.3186,0.3202,0.3208,0.3208,0.3335,0.3335,0,0,0.3009,0.299,0.3046,0.3057,0.3056,0.3064,0.3069,0.3143,0.3147,0.3182,0.3188,0.3203,0.3209,0.3209,0.3334,0.3335,0,0,0,0.3002,0.2986,0.3019,0.3052,0.3073,0.3066,0.3072,0.3144,0.3159,0.3189,0.3204,0.3209,0.321,0.3334,0.3335,0.338,0,0,0,0.2999,0.2984,0.3017,0.3005,0.3072,0.311,0.3071,0.3153,0.3162,0.3204,0.3209,0.3211,0.3333,0.3334,0.3378,0.3385,0,0,0,0.2981,0.2981,0.2997,0.3004,0.3047,0.311,0.3128,0.3155,0.3172,0.3208,0.3212,0.3332,0.3334,0.3375,0.3382,0.3483,0,0,0,0.2951,0.2974,0.2996,0.3031,0.3046,0.3121,0.3127,0.3174,0.3204,0.321,0.3333,0.3334,0.3374,0.3379,0.3479,0.3464,0.3479,0,0,0.2961,0.2974,0.2997,0.302,0.3087,0.3108,0.319,0.3225,0.3235,0.3304,0.3307,0.3379,0.3381,0.3482,0.355,0.3562,0,0,0,0.2989,0.3004,0.3029,0.3075,0.3133,0.3197,0.324,0.3274,0.3338,0.3264,0.3396,0.3396,0.3459,0.3443,0.3453,0.3458,0.3341,0.3341,0.3341,0.2951,0.3002,0.304,0.3111,0.3168,0.3264,0.3324,0.3381,0.3384,0.3424,0.3447,0.3569,0.3552,0.356,0.3565,0.347,0.347,0.347,0.347,0.2947,0.2963,0.3042,0.3093,0.3187,0.326,0.3406,0.344,0.3563,0.3517,0.3577,0.3507,0.3573,0.3575,0.3473,0.3473,0.3472,0.3472,0.3472,0.2893,0.2911,0.295,0.3036,0.3134,0.3258,0.3397,0.3519,0.3592,0.3655,0.3681,0.3679,0.3672,0.3707,0.3707,0.3708,0.3708,0.3709,0.3709,0.281,0.2859,0.2882,0.2987,0.3038,0.3183,0.3406,0.3518,0.3684,0.3732,0.3733,0.3716,0.3642,0.3623,0.3717,0.3715,0.3714,0.3714,0.3713,0.2742,0.2765,0.2797,0.2838,0.2968,0.3057,0.3305,0.3551,0.3707,0.3781,0.3837,0.3795,0.3788,0.3778,0.3763,0.3887,0.3887,0.3887,0.3887,0.2675,0.2698,0.2709,0.2746,0.2839,0.2989,0.3105,0.3366,0.37,0.3829,0.3913,0.3839,0.3831,0.3823,0.3812,0.3796,0.3926,0.3926,0.3926,0.2624,0.2645,0.2615,0.2663,0.2752,0.2869,0.2929,0.3129,0.3636,0.3929,0.3931,0.393,0.3818,0.3806,0.3783,0.3768,0.3737,0,0]},{"header":{"parameterUnit":"m.s-1","parameterCategory":2,"la1":30.2992,"la2":30.254,"lo1":-89.0895,"lo2":-89.0443,"dy":0.0025,"dx":0.0025,"nx":19,"ny":19,"refTime":"2026-05-01T03:00:00:Z","depth":"0","parameterNumber":3,"parameterNumberName":"V-component_of_CURRENTS"},"data":[0,0,0,0.0008,0.0007,-0.0048,-0.0048,-0.015,-0.0151,0,0,0,0,0,0,0,0,0,0,0,0.0021,0.0021,0.0008,0.0007,-0.0048,-0.0048,-0.015,-0.0151,0,0,0,0,0,0,0,0,0,0,0,0.0021,0.0021,0.0021,0.0007,-0.0047,-0.0048,-0.015,-0.0105,0,0,0,0,0,0,0,0,0,0,-0.005,-0.0024,0.0021,0.0021,0.0007,-0.0047,-0.0048,-0.0103,-0.0108,-0.0128,0,-0.0126,0,-0.013,-0.0157,-0.0157,0,0,0,-0.0014,-0.002,-0.0032,0.0021,0.0007,-0.0047,-0.0029,-0.0106,-0.0112,-0.0135,-0.0128,-0.0131,-0.0132,-0.0157,-0.0158,-0.0163,-0.0162,0,0,-0.001,0.0003,-0.0028,-0.0035,0.0005,-0.0027,-0.003,-0.0109,-0.0112,-0.0128,-0.0133,-0.0133,-0.0158,-0.0158,-0.0163,-0.0163,0,0,0,0.0012,0.0005,-0.0005,-0.0031,-0.0032,-0.0028,-0.0032,-0.0109,-0.0111,-0.0134,-0.0134,-0.0158,-0.0159,-0.0164,-0.0163,-0.0038,0,0,0,0.0013,0.002,-0.0003,0.0003,-0.003,-0.0066,-0.003,-0.0106,-0.0115,-0.0134,-0.0158,-0.016,-0.0165,-0.0164,-0.0043,0.0032,0,0,0,0.0021,0.0021,0.0019,0.0004,-0.0009,-0.0064,-0.0072,-0.0108,-0.0114,-0.0157,-0.016,-0.0165,-0.0164,-0.0047,0.0024,0.0072,0,0,0,0.0029,0.0063,0.0019,0.0057,-0.0008,0.0007,-0.0072,-0.0082,-0.011,-0.0159,-0.0165,-0.0163,-0.0049,0.0019,0.0067,0.0174,0.0205,0,0,0.0085,0.007,0.0095,0.0056,0.0106,0.0013,0.0052,-0.0027,-0.0098,-0.0146,-0.0147,-0.0041,0.0024,0.0071,0.0253,0.0282,0,0,0,0.0122,0.0145,0.015,0.0165,0.0147,0.0144,0.0063,0.0024,-0.0023,-0.0105,-0.0049,-0.0011,0.0015,0.0068,0.0091,-0.0044,-0.0157,-0.0157,-0.0157,0.0216,0.0215,0.0272,0.0272,0.0274,0.0229,0.0215,0.0146,0.0059,0.0057,0.0084,0.0201,0.026,0.0279,0.0138,0.0065,0.0066,0.0066,0.0066,0.0329,0.0373,0.0369,0.042,0.0404,0.0418,0.0358,0.0299,0.0279,0.0189,0.0207,0.0191,0.0312,0.0152,0.0074,0.0073,0.0072,0.0071,0.007,0.0398,0.0426,0.0444,0.0522,0.0572,0.0541,0.0614,0.053,0.0407,0.0433,0.045,0.0448,0.0311,0.043,0.0431,0.0431,0.0432,0.0432,0.0433,0.0464,0.0493,0.0566,0.0635,0.0697,0.0774,0.0765,0.0762,0.07,0.0611,0.0611,0.0349,0.0312,0.0301,0.0442,0.044,0.0439,0.0438,0.0437,0.0566,0.0568,0.0696,0.0766,0.0928,0.1098,0.1062,0.1083,0.1021,0.1014,0.0637,0.0686,0.0654,0.0635,0.0632,0.0849,0.0849,0.0849,0.0849,0.0632,0.0642,0.0822,0.0964,0.1139,0.1252,0.1456,0.1429,0.1108,0.091,0.0727,0.0647,0.0636,0.0594,0.0576,0.0566,0.0762,0.0761,0.0761,0.071,0.0759,0.09,0.1032,0.1234,0.1441,0.1662,0.1723,0.1188,0.0735,0.0519,0.0522,0.0373,0.0367,0.027,0.0255,0.0227,0,0]}],[{"header":{"parameterUnit":"m.s-1","parameterCategory":2,"la1":30.2992,"la2":30.254,"lo1":-89.0895,"lo2":-89.0443,"dy":0.0025,"dx":0.0025,"nx":19,"ny":19,"refTime":"2026-05-01T03:00:00:Z","depth":"2","parameterNumber":2,"parameterNumberName":"U-component_of_CURRENTS"},"data":[0,0,0,0.2887,0.289,0.2981,0.2981,0.3074,0.3075,0,0,0,0,0,0,0,0,0,0,0,0.2852,0.2853,0.2887,0.289,0.2981,0.2981,0.3074,0.3075,0,0,0,0,0,0,0,0,0,0,0,0.2852,0.2853,0.2854,0.289,0.2981,0.2981,0.3074,0.3008,0,0,0,0,0,0,0,0,0,0,0.2922,0.289,0.2853,0.2854,0.2891,0.2981,0.2981,0.3005,0.3013,0.3029,0,0.3051,0,0.3071,0.3081,0.3082,0,0,0,0.288,0.2884,0.2918,0.2854,0.2892,0.2981,0.2937,0.301,0.3017,0.3038,0.3052,0.3056,0.3073,0.3082,0.3083,0.3206,0.3207,0,0,0.2875,0.2859,0.2913,0.2924,0.2926,0.2934,0.294,0.3015,0.3021,0.3053,0.3059,0.3074,0.3083,0.3083,0.3205,0.3206,0,0,0,0.2867,0.2855,0.2887,0.2919,0.2942,0.2937,0.2944,0.3018,0.3032,0.306,0.3076,0.3083,0.3084,0.3205,0.3206,0.3254,0,0,0,0.2864,0.2851,0.2885,0.2875,0.2941,0.2983,0.2945,0.3026,0.3036,0.3075,0.3083,0.3085,0.3204,0.3205,0.3252,0.326,0,0,0,0.2846,0.2849,0.2865,0.2874,0.2919,0.2983,0.3,0.3028,0.3046,0.3082,0.3086,0.3203,0.3205,0.3249,0.3256,0.3352,0,0,0,0.2818,0.2842,0.2865,0.2901,0.2919,0.2992,0.3,0.3049,0.3081,0.3084,0.3204,0.3206,0.3248,0.3254,0.3348,0.3305,0.3318,0,0,0.283,0.2843,0.2866,0.2889,0.2955,0.2978,0.306,0.3099,0.311,0.3174,0.3178,0.3253,0.3256,0.3351,0.3391,0.34,0,0,0,0.2858,0.2873,0.2898,0.2945,0.3001,0.3066,0.3112,0.3146,0.3212,0.314,0.3269,0.327,0.3328,0.3296,0.3304,0.3213,0.3212,0.3212,0.3212,0.2828,0.2874,0.2913,0.2981,0.3037,0.3133,0.3193,0.325,0.3256,0.3298,0.3323,0.3441,0.3406,0.3412,0.3344,0.3344,0.3344,0.3344,0.3344,0.2826,0.2842,0.2918,0.2969,0.306,0.3135,0.3275,0.3312,0.3433,0.3391,0.3447,0.3363,0.3424,0.3349,0.3348,0.3347,0.3347,0.3347,0.3346,0.2778,0.2794,0.2835,0.2921,0.3018,0.3139,0.3274,0.3394,0.3466,0.3527,0.3532,0.353,0.3479,0.3578,0.3579,0.3579,0.3579,0.358,0.358,0.2701,0.2749,0.2774,0.2878,0.2931,0.3073,0.3289,0.3394,0.3542,0.3582,0.3583,0.3521,0.3513,0.3494,0.3587,0.3586,0.3585,0.3584,0.3584,0.2637,0.2662,0.2696,0.2738,0.2866,0.2941,0.3186,0.3403,0.355,0.3608,0.3632,0.3628,0.3616,0.3608,0.3592,0.3705,0.3705,0.3705,0.3705,0.2575,0.2598,0.2613,0.265,0.2736,0.287,0.2941,0.3108,0.3371,0.3442,0.3452,0.3351,0.3354,0.332,0.3318,0.3293,0.3329,0.3328,0.3327,0.2527,0.2548,0.2522,0.257,0.265,0.2742,0.2728,0.2707,0.2949,0.3303,0.3288,0.3699,0.3577,0.3571,0.3537,0.3527,0.3494,0,0]},{"header":{"parameterUnit":"m.s-1","parameterCategory":2,"la1":30.2992,"la2":30.254,"lo1":-89.0895,"lo2":-89.0443,"dy":0.0025,"dx":0.0025,"nx":19,"ny":19,"refTime":"2026-05-01T03:00:00:Z","depth":"2","parameterNumber":3,"parameterNumberName":"V-component_of_CURRENTS"},"data":[0,0,0,0.0118,0.0118,0.0059,0.0059,-0.0038,-0.0038,0,0,0,0,0,0,0,0,0,0,0,0.0132,0.0132,0.0118,0.0118,0.0059,0.0059,-0.0038,-0.0038,0,0,0,0,0,0,0,0,0,0,0,0.0132,0.0132,0.0132,0.0117,0.0059,0.0059,-0.0037,0.0007,0,0,0,0,0,0,0,0,0,0,0.0065,0.0089,0.0132,0.0132,0.0117,0.0059,0.0059,0.0009,0.0004,-0.0011,0,-0.0011,0,-0.0016,-0.0044,-0.0044,0,0,0,0.0098,0.0093,0.0081,0.0132,0.0117,0.006,0.008,0.0007,0.0001,-0.0018,-0.0013,-0.0016,-0.0018,-0.0044,-0.0044,-0.0047,-0.0047,0,0,0.0101,0.0114,0.0085,0.0078,0.0113,0.0082,0.0078,0.0003,-0.0,-0.0013,-0.0018,-0.0019,-0.0045,-0.0045,-0.0048,-0.0047,0,0,0,0.0124,0.0116,0.0106,0.0082,0.0079,0.0081,0.0077,0.0002,0.0001,-0.0019,-0.002,-0.0045,-0.0046,-0.0048,-0.0047,0.0071,0,0,0,0.0125,0.0131,0.0108,0.0114,0.0081,0.0044,0.0078,0.0005,-0.0003,-0.002,-0.0045,-0.0047,-0.0049,-0.0048,0.0066,0.0139,0,0,0,0.0133,0.0132,0.0129,0.0115,0.01,0.0046,0.0038,0.0003,-0.0003,-0.0044,-0.0047,-0.0049,-0.0048,0.0062,0.0131,0.0174,0,0,0,0.0141,0.0173,0.013,0.0165,0.01,0.0115,0.0038,0.0027,0.0,-0.0045,-0.0049,-0.0048,0.0061,0.0126,0.0169,0.026,0.0288,0,0,0.0194,0.0179,0.0202,0.0164,0.0212,0.0121,0.0158,0.0081,0.0013,-0.0031,-0.0031,0.0068,0.013,0.0173,0.0334,0.0361,0,0,0,0.0229,0.025,0.0255,0.0269,0.0252,0.0247,0.0168,0.0131,0.0084,0.0006,0.0061,0.0097,0.012,0.0164,0.0185,-0.0041,-0.0042,-0.0042,-0.0042,0.0316,0.0317,0.0372,0.0372,0.0374,0.0329,0.0314,0.0247,0.0164,0.0161,0.0187,0.0296,0.0346,0.0362,0.0168,0.0168,0.0169,0.0169,0.0169,0.0425,0.0467,0.0465,0.0514,0.0498,0.0511,0.0452,0.0394,0.0373,0.0287,0.0302,0.028,0.0393,0.0179,0.0177,0.0176,0.0175,0.0174,0.0173,0.0489,0.0517,0.0534,0.061,0.0658,0.0628,0.0697,0.0616,0.0494,0.0518,0.0523,0.0522,0.0372,0.0512,0.0513,0.0513,0.0514,0.0514,0.0514,0.055,0.058,0.065,0.0718,0.0778,0.0852,0.0842,0.0835,0.0766,0.0676,0.0676,0.0411,0.04,0.039,0.0523,0.0521,0.052,0.0519,0.0519,0.0647,0.0649,0.0773,0.0841,0.1,0.1157,0.1125,0.1131,0.1067,0.105,0.0749,0.0741,0.0709,0.0691,0.0688,0.0889,0.0889,0.0889,0.0889,0.0709,0.0719,0.0893,0.1032,0.1201,0.1305,0.1472,0.1402,0.1194,0.1033,0.1026,0.0972,0.0955,0.0931,0.0907,0.0904,0.1162,0.1163,0.1163,0.0785,0.0832,0.0968,0.1097,0.1293,0.148,0.1643,0.1567,0.1252,0.1169,0.1026,0.0917,0.0815,0.0796,0.0733,0.0706,0.0691,0,0]}],[{"header":{"parameterUnit":"m.s-1","parameterCategory":2,"la1":30.2992,"la2":30.254,"lo1":-89.0895,"lo2":-89.0443,"dy":0.0025,"dx":0.0025,"nx":19,"ny":19,"refTime":"2026-05-01T03:00:00:Z","depth":"4","parameterNumber":2,"parameterNumberName":"U-component_of_CURRENTS"},"data":[0,0,0,0.1996,0.2,0.22,0.2201,0.2356,0.2357,0,0,0,0,0,0,0,0,0,0,0,0.1933,0.1935,0.1995,0.2,0.22,0.2201,0.2356,0.2357,0,0,0,0,0,0,0,0,0,0,0,0.1932,0.1934,0.1936,0.2001,0.22,0.2201,0.2355,0.2229,0,0,0,0,0,0,0,0,0,0,0.2047,0.2011,0.1934,0.1937,0.2002,0.22,0.2201,0.2224,0.2237,0.2237,0,0.2285,0,0.2322,0.2365,0.2366,0,0,0,0.1998,0.2001,0.2048,0.1937,0.2004,0.22,0.2109,0.2232,0.2246,0.2253,0.2287,0.2294,0.2324,0.2366,0.2367,0.2516,0.2517,0,0,0.1987,0.1971,0.2039,0.2058,0.2076,0.2103,0.2116,0.2242,0.2266,0.2288,0.2298,0.2327,0.2367,0.2368,0.2515,0.2516,0,0,0,0.1957,0.1964,0.2011,0.2051,0.2094,0.2109,0.2123,0.2261,0.2276,0.23,0.2329,0.2368,0.2369,0.2514,0.2516,0.2577,0,0,0,0.195,0.1946,0.2006,0.1999,0.2093,0.2196,0.214,0.2268,0.2283,0.2328,0.2368,0.237,0.2514,0.2515,0.2573,0.2584,0,0,0,0.192,0.1943,0.1971,0.1997,0.2084,0.2195,0.2218,0.2272,0.23,0.2366,0.2371,0.2513,0.2515,0.257,0.258,0.2659,0,0,0,0.1889,0.193,0.1972,0.2035,0.2082,0.2192,0.2218,0.2316,0.2376,0.2368,0.2514,0.2515,0.2569,0.2577,0.2655,0.232,0,0,0,0.191,0.1933,0.1967,0.2008,0.2102,0.2163,0.2278,0.2371,0.2398,0.2462,0.2467,0.2574,0.2579,0.2658,0.2423,0,0,0,0,0.1952,0.1981,0.2016,0.2092,0.2173,0.2274,0.2368,0.2417,0.2524,0.2444,0.2592,0.2593,0.2641,0.2435,0.2524,0.2523,0.2523,0.2523,0.2523,0.1937,0.1991,0.2055,0.2141,0.2224,0.2364,0.2451,0.2537,0.2561,0.2625,0.2656,0.2773,0.2558,0.2679,0.268,0.268,0.268,0.268,0.2681,0.1942,0.1967,0.2074,0.2157,0.2278,0.2392,0.255,0.261,0.2753,0.2729,0.2774,0.2529,0.2687,0.2686,0.2685,0.2684,0.2684,0.2683,0.2683,0.1893,0.1912,0.1996,0.2128,0.2274,0.2427,0.2564,0.271,0.2799,0.2863,0.2679,0.2827,0.2808,0.2914,0.2915,0.2915,0.2916,0.2916,0.2916,0.1792,0.1874,0.1944,0.2101,0.2196,0.2363,0.2602,0.2684,0.2824,0.2709,0.2902,0.2852,0.2844,0.2822,0.2923,0.2921,0.2921,0.292,0.292,0.1703,0.1765,0.1844,0.1935,0.2124,0.2219,0.2484,0.2568,0.2643,0.2615,0.263,0.2643,0.2593,0.2593,0.2559,0.2586,0.2582,0.2578,0,0.1628,0.1667,0.1752,0.1835,0.1924,0.2114,0.2126,0.2263,0.2394,0.2313,0.2648,0.2663,0.2669,0.261,0.2603,0.256,0,0,0,0.1568,0.1608,0.1625,0.1729,0.1808,0.1918,0.2115,0.2086,0.2372,0.234,0.248,0.2506,0.2748,0.2942,0.2897,0.2888,0.2851,0,0]},{"header":{"parameterUnit":"m.s-1","parameterCategory":2,"la1":30.2992,"la2":30.254,"lo1":-89.0895,"lo2":-89.0443,"dy":0.0025,"dx":0.0025,"nx":19,"ny":19,"refTime":"2026-05-01T03:00:00:Z","depth":"4","parameterNumber":3,"parameterNumberName":"V-component_of_CURRENTS"},"data":[0,0,0,0.0209,0.0209,0.0168,0.0167,0.0095,0.0094,0,0,0,0,0,0,0,0,0,0,0,0.0219,0.0219,0.0209,0.0209,0.0168,0.0167,0.0095,0.0094,0,0,0,0,0,0,0,0,0,0,0,0.0219,0.0219,0.0219,0.0209,0.0168,0.0167,0.0095,0.0127,0,0,0,0,0,0,0,0,0,0,0.0167,0.0188,0.0219,0.0219,0.0208,0.0168,0.0167,0.0128,0.0125,0.0112,0,0.0115,0,0.0111,0.009,0.009,0,0,0,0.0192,0.0191,0.0182,0.0219,0.0208,0.0168,0.0182,0.0126,0.0122,0.0108,0.0114,0.0111,0.011,0.009,0.009,0.0085,0.0085,0,0,0.0194,0.0206,0.0185,0.018,0.0209,0.0183,0.0181,0.0124,0.0123,0.0114,0.011,0.0109,0.009,0.0089,0.0085,0.0085,0,0,0,0.0212,0.0208,0.02,0.0182,0.0182,0.0182,0.0179,0.0125,0.0124,0.0109,0.0108,0.0089,0.0089,0.0084,0.0085,0.0179,0,0,0,0.0213,0.022,0.0201,0.0207,0.0183,0.0157,0.0182,0.0127,0.0121,0.0109,0.0089,0.0088,0.0084,0.0085,0.0176,0.0235,0,0,0,0.0219,0.022,0.0219,0.0208,0.0199,0.0158,0.0152,0.0125,0.0121,0.009,0.0088,0.0084,0.0085,0.0173,0.0229,0.0253,0,0,0,0.0226,0.0249,0.022,0.0246,0.0199,0.021,0.0152,0.0145,0.0125,0.0089,0.0084,0.0085,0.0172,0.0225,0.025,0.0276,0,0,0,0.0264,0.0254,0.0271,0.0245,0.0282,0.0214,0.0242,0.0186,0.0132,0.0097,0.0097,0.0177,0.0229,0.0252,0.0328,0,0,0,0,0.0289,0.0306,0.031,0.0323,0.0311,0.031,0.0251,0.0222,0.0186,0.0127,0.0169,0.0199,0.021,0.0215,0.0089,0.0089,0.0089,0.0089,0.0089,0.0352,0.0354,0.0397,0.0401,0.0403,0.0373,0.0362,0.031,0.0247,0.0244,0.0269,0.0346,0.0354,0.0249,0.025,0.025,0.0251,0.0251,0.0251,0.0428,0.0459,0.0467,0.0508,0.0503,0.0516,0.0468,0.0425,0.0406,0.0344,0.0349,0.0307,0.026,0.0259,0.0257,0.0256,0.0255,0.0255,0.0254,0.047,0.0491,0.0516,0.0583,0.0631,0.0613,0.0663,0.0603,0.0502,0.0519,0.049,0.0406,0.0405,0.0511,0.0511,0.0511,0.0512,0.0512,0.0512,0.0504,0.0536,0.0598,0.0666,0.0724,0.0784,0.0781,0.0762,0.0666,0.0613,0.0547,0.0433,0.0424,0.0418,0.0518,0.0517,0.0516,0.0516,0.0515,0.0559,0.0574,0.0677,0.0743,0.088,0.093,0.0936,0.0871,0.0849,0.0779,0.0642,0.0634,0.06,0.0587,0.0585,0.0739,0.0739,0.074,0,0.0595,0.0608,0.0752,0.087,0.0987,0.102,0.1028,0.0987,0.0846,0.0831,0.0818,0.0666,0.0658,0.062,0.061,0.061,0,0,0,0.0637,0.068,0.0785,0.09,0.1033,0.1039,0.1031,0.0994,0.0875,0.0848,0.0758,0.0754,0.0658,0.0536,0.0464,0.0453,0.044,0,0]}]]